Flag for U.S.A. Weather past 2 weeks in Cedar Rapids, Iowa, U.S.A.

Now
64 °F

Partly sunny.


Feels Like: 64 °F
Forecast: 57 / 71 °F
Wind: 12 mph from North

Location: Cedar Rapids Municipal Airport

Current Time: Jul 7, 2015 at 10:49:42 AM

Latest Report: Jul 7, 2015 at 9:52 AM


Visibility: 4 mi

Pressure: 30.05 "Hg

Humidity: 81%

Dew point: 58 °F

Location of Cedar RapidsLocation

Historic Weather in Cedar Rapids — Graph

°F

Cedar Rapids temperature yesterday

Maximum temperature yesterday: 79 °F (at 3:52 PM)
Minimum temperature yesterday: 66 °F (at 11:52 PM)
Average temperature yesterday: 73 °F

Past Weeks' High & Low Weather Summary

 TemperatureHumidityPressure
High83 °F (Jul 5, 4:52 PM)100% (Jun 22, 12:52 PM)30.18 "Hg (Jun 22, 12:52 PM)
Low54 °F (Jul 3, 5:52 AM)45% (Jun 27, 3:52 PM)29.72 "Hg (Jun 22, 5:52 PM)
Average68 °F84%29.94 "Hg
* Reported Jun 22 9:52 AM — Jul 7 9:52 AM, Cedar Rapids, Weather by CustomWeather, © 2015

Note: Actual official high and low records may vary slightly from our data, if they occured in-between our weather recording intervals... More about our weather records

Advertising

Cedar Rapids weather history for previous 24 hours

 ConditionsComfort  
Time TempWeatherWind HumidityBarometerVisibility
9:52 AM
Tue, Jul 7
64 °FPartly sunny.12 mph81%30.05 "Hg4 mi
8:52 AM64 °FHaze.13 mph81%30.03 "Hg4 mi
7:52 AM61 °FFog.13 mph90%30.02 "Hg3 mi
6:52 AM59 °FFog.10 mph96%30.00 "Hg2 mi
5:52 AM59 °FFog.9 mph96%29.99 "Hg2 mi
4:52 AM59 °FFog.9 mph96%29.97 "Hg2 mi
3:52 AM60 °FFog.10 mph93%29.94 "Hg2 mi
2:52 AM61 °FFog.12 mph90%29.93 "Hg2 mi
1:52 AM63 °FFog.14 mph87%29.93 "Hg2 mi
1:02 AM64 °FFog.15 mph87%29.94 "Hg2 mi
12:52 AM64 °FFog.14 mph87%29.92 "Hg3 mi
11:52 PM
Mon, Jul 6
66 °FOvercast.14 mph81%29.91 "Hg4 mi
10:52 PM67 °FOvercast.16 mph85%29.90 "Hg5 mi
9:52 PM69 °FOvercast.13 mph81%29.90 "Hg6 mi
8:52 PM71 °FOvercast.13 mph84%29.86 "Hg10 mi
7:52 PM74 °FBroken clouds.10 mph91%29.84 "Hg10 mi
6:52 PM75 °FMore clouds than sun.10 mph90%29.83 "Hg10 mi
5:52 PM76 °FBroken clouds.10 mph91%29.80 "Hg10 mi
4:52 PM78 °FHeavy rain. Fog.7 mph90%29.82 "Hg6 mi
3:52 PM79 °FPartly sunny.9 mph90%29.82 "Hg8 mi
2:52 PM78 °FBroken clouds.10 mph90%29.83 "Hg10 mi
1:52 PM77 °FPassing clouds.10 mph85%29.86 "Hg10 mi
12:52 PM76 °FPassing clouds.13 mph91%29.85 "Hg10 mi
11:52 AM73 °FFog.14 mph100%29.87 "Hg6 mi
10:52 AM71 °FLight rain. Fog.12 mph100%29.87 "Hg3 mi
Weather by CustomWeather, © 2015

See weather overviewHow to use our weather pages